Terminal Aerodrome Forecast
Issued by NWS

Home | Current Version | Previous Version | Text Only | Print | Product List | Glossary On
Versions: 1 2 3 4 5 6 7 8 9 10 11 12 13 14 15 16 17 18 19 20 21 22 23
540
FTUS42 KKEY 111642 AAB
TAFMTH
TAF AMD
KMTH 111642Z 1117/1212 02010G17KT P6SM SCT250
     FM112200 05007KT P6SM FEW030=

USA.gov is the U.S. government's official web portal to all federal, state and local government web resources and services.